Alamogordo, NM

4:34 PM MST on November 21, 2019 (GMT -0700)
Alamogordo-White Sands Regional

Weather History for KALM - September, 2019

Change the Weather History Date:

Thursday, September 5, 2019

  Actual Average Record
Temperature  
Mean Temperature 75 °F -  
Max Temperature 91 °F 87 °F 100 °F (1951)
Min Temperature 59 °F 61 °F 49 °F (1961)
Cooling Degree Days 10    
Growing Degree Days 25 (Base 50)    
Moisture  
Dew Point 47 °F    
Average Humidity 34    
Maximum Humidity 59    
Minimum Humidity 20    
Precipitation  
Precipitation 0.00 in - - ()
Sea Level Pressure  
Sea Level Pressure 30.23 in    
Wind  
Wind Speed 5 mph ()    
Max Wind Speed 10 mph    
Max Gust Speed 17 mph    
Visibility 9.9 miles    
Events      
Averages and records for this station are not official NWS values.
T = Trace of Precipitation, MM = Missing Value Source: Averaged Metar Reports

Daily Weather History Graph

Daily Weather History Graph

Search for Another Location

Airport or City:

Astronomy

Sep. 05, 2019 Rise Set
Actual Time 6:41 AM MDT 7:23 PM MDT
Civil Twilight 6:16 AM MDT 7:48 PM MDT
Nautical Twilight 5:46 AM MDT 8:18 PM MDT
Astronomical Twilight 5:16 AM MDT 8:48 PM MDT
Moon 1:28 PM MDT (9/5) No Moon Set
Length of Visible Light 13h 32m
Length of Day
12h 42m
Waxing Crescent, 46% of the Moon is Illuminated
Sep 5
Waxing Crescent
Sep 5
First Quarter
Sep 13
Full
Sep 21
Last Quarter
Sep 28
New

Hourly Weather History & Observations

Time (MDT) Temp. Dew Point Humidity Pressure Visibility Wind Dir Wind Speed Gust Speed Precip Events Conditions
12:15 AM 77.0 °F 46.4 °F 34% 30.23 in 10.0 mi SE 10.4 mph - N/A   Clear
12:35 AM 77.0 °F 48.2 °F 36% 30.23 in 10.0 mi SSE 9.2 mph - N/A   Clear
12:55 AM 77.0 °F 48.2 °F 36% 30.23 in 10.0 mi South 9.2 mph 16.1 mph N/A   Clear
1:15 AM 75.2 °F 48.2 °F 38% 30.23 in 10.0 mi SE 4.6 mph - N/A   Clear
1:35 AM 73.4 °F 46.4 °F 38% 30.24 in 10.0 mi East 4.6 mph - N/A   Clear
1:55 AM 71.6 °F 44.6 °F 38% 30.24 in 10.0 mi North - - N/A   Clear
2:15 AM 71.6 °F 44.6 °F 38% 30.24 in 10.0 mi North - - N/A   Clear
2:35 AM 71.6 °F 44.6 °F 38% 30.24 in 10.0 mi North - - N/A   Clear
2:55 AM 69.8 °F 44.6 °F 40% 30.24 in 10.0 mi North - - N/A   Clear
3:15 AM 69.8 °F 44.6 °F 40% 30.24 in 10.0 mi North - - N/A   Clear
3:35 AM 68.0 °F 44.6 °F 43% 30.24 in 10.0 mi North - - N/A   Clear
3:55 AM 68.0 °F 44.6 °F 43% 30.23 in 10.0 mi NNW 8.1 mph - N/A   Clear
4:15 AM 68.0 °F 44.6 °F 43% 30.24 in 10.0 mi North 10.4 mph - N/A   Clear
4:35 AM 66.2 °F 44.6 °F 46% 30.24 in 10.0 mi NW 3.5 mph - N/A   Clear
4:55 AM 64.4 °F 44.6 °F 49% 30.24 in 10.0 mi North 5.8 mph - N/A   Clear
5:15 AM 66.2 °F 44.6 °F 46% 30.25 in 10.0 mi NNW 8.1 mph - N/A   Clear
5:35 AM 66.2 °F 46.4 °F 49% 30.25 in 10.0 mi North 8.1 mph - N/A   Clear
5:55 AM 66.2 °F 44.6 °F 46% 30.26 in 10.0 mi North 3.5 mph - N/A   Clear
6:15 AM 66.2 °F 44.6 °F 46% 30.26 in 10.0 mi NNW 4.6 mph - N/A   Clear
6:35 AM 62.6 °F 44.6 °F 52% 30.27 in 10.0 mi Calm Calm - N/A   Clear
6:55 AM 62.6 °F 44.6 °F 52% 30.27 in 10.0 mi Calm Calm - N/A   Clear
7:15 AM 59.0 °F 44.6 °F 59% 30.28 in 10.0 mi Calm Calm - N/A   Clear
7:35 AM 64.4 °F 46.4 °F 52% 30.28 in 5.0 mi Calm Calm - N/A   Haze
7:55 AM 66.2 °F 48.2 °F 52% 30.29 in 10.0 mi Calm Calm - N/A   Clear
8:15 AM 71.6 °F 48.2 °F 43% 30.29 in 10.0 mi ESE 3.5 mph - N/A   Clear
8:35 AM 73.4 °F 48.2 °F 41% 30.29 in 10.0 mi Calm Calm - N/A   Clear
8:55 AM 77.0 °F 46.4 °F 34% 30.30 in 10.0 mi Calm Calm - N/A   Clear
9:15 AM 77.0 °F 46.4 °F 34% 30.30 in 10.0 mi Calm Calm - N/A   Clear
9:35 AM 80.6 °F 46.4 °F 30% 30.30 in 10.0 mi West 3.5 mph - N/A   Clear
9:55 AM 80.6 °F 46.4 °F 30% 30.30 in 10.0 mi West 6.9 mph - N/A   Clear
10:15 AM 82.4 °F 46.4 °F 28% 30.30 in 10.0 mi SSE 3.5 mph - N/A   Clear
10:35 AM 82.4 °F 46.4 °F 28% 30.30 in 10.0 mi WSW 3.5 mph - N/A   Clear
10:55 AM 82.4 °F 46.4 °F 28% 30.29 in 10.0 mi SSW 3.5 mph - N/A   Clear
11:15 AM 84.2 °F 48.2 °F 29% 30.29 in 10.0 mi WSW 4.6 mph - N/A   Clear
11:35 AM 84.2 °F 46.4 °F 27% 30.29 in 10.0 mi ESE 5.8 mph - N/A   Clear
11:55 AM 86.0 °F 46.4 °F 25% 30.28 in 10.0 mi South 6.9 mph - N/A   Clear
12:15 PM 86.0 °F 46.4 °F 25% 30.27 in 10.0 mi SSE 3.5 mph - N/A   Clear
12:35 PM 86.0 °F 46.4 °F 25% 30.27 in 10.0 mi SSW 10.4 mph - N/A   Clear
12:55 PM 86.0 °F 46.4 °F 25% 30.26 in 10.0 mi North - - N/A   Clear
1:15 PM 86.0 °F 46.4 °F 25% 30.25 in 10.0 mi NNW 3.5 mph - N/A   Clear
1:35 PM 86.0 °F 48.2 °F 27% 30.25 in 10.0 mi East 4.6 mph - N/A   Clear
1:55 PM 89.6 °F 48.2 °F 24% 30.24 in 10.0 mi SSW 5.8 mph - N/A   Clear
2:15 PM 91.4 °F 48.2 °F 23% 30.23 in 10.0 mi SSW 5.8 mph - N/A   Clear
2:35 PM 89.6 °F 46.4 °F 22% 30.22 in 10.0 mi ESE 3.5 mph - N/A   Clear
2:55 PM 89.6 °F 46.4 °F 22% 30.21 in 10.0 mi West 9.2 mph - N/A   Clear
3:15 PM 91.4 °F 46.4 °F 21% 30.20 in 10.0 mi SW 10.4 mph 17.3 mph N/A   Clear
3:35 PM 91.4 °F 46.4 °F 21% 30.19 in 10.0 mi SSW 3.5 mph - N/A   Clear
3:55 PM 91.4 °F 46.4 °F 21% 30.18 in 10.0 mi South 5.8 mph - N/A   Clear
4:15 PM 91.4 °F 46.4 °F 21% 30.18 in 10.0 mi West 6.9 mph - N/A   Clear
4:35 PM 91.4 °F 44.6 °F 20% 30.18 in 10.0 mi ESE 4.6 mph - N/A   Clear
4:55 PM 91.4 °F 46.4 °F 21% 30.17 in 10.0 mi West 6.9 mph - N/A   Clear
5:15 PM 91.4 °F 46.4 °F 21% 30.17 in 10.0 mi SW 8.1 mph - N/A   Clear
5:35 PM 89.6 °F 46.4 °F 22% 30.16 in 10.0 mi South 8.1 mph 16.1 mph N/A   Clear
5:55 PM 89.6 °F 46.4 °F 22% 30.16 in 10.0 mi South 10.4 mph - N/A   Clear
6:15 PM 87.8 °F 46.4 °F 24% 30.16 in 10.0 mi South 8.1 mph - N/A   Clear
6:35 PM 86.0 °F 46.4 °F 25% 30.16 in 10.0 mi South 9.2 mph - N/A   Clear
6:55 PM 86.0 °F 46.4 °F 25% 30.16 in 10.0 mi South 6.9 mph - N/A   Clear
7:15 PM 84.2 °F 46.4 °F 27% 30.16 in 10.0 mi South 5.8 mph - N/A   Clear
7:35 PM 82.4 °F 48.2 °F 30% 30.17 in 10.0 mi South 6.9 mph - N/A   Clear
7:55 PM 78.8 °F 48.2 °F 34% 30.17 in 10.0 mi South 6.9 mph - N/A   Clear
8:15 PM 77.0 °F 48.2 °F 36% 30.18 in 5.0 mi SE 8.1 mph - N/A   Haze
8:35 PM 75.2 °F 48.2 °F 38% 30.19 in 10.0 mi SSE 5.8 mph - N/A   Clear
8:55 PM 77.0 °F 48.2 °F 36% 30.19 in 10.0 mi South 6.9 mph - N/A   Clear
9:15 PM 77.0 °F 48.2 °F 36% 30.20 in 10.0 mi South 6.9 mph - N/A   Clear
9:35 PM 75.2 °F 48.2 °F 38% 30.20 in 10.0 mi SSE 8.1 mph - N/A   Clear
9:55 PM 75.2 °F 48.2 °F 38% 30.20 in 10.0 mi SSE 6.9 mph - N/A   Clear
10:15 PM 73.4 °F 48.2 °F 41% 30.20 in 10.0 mi SSE 5.8 mph - N/A   Clear
10:35 PM 73.4 °F 48.2 °F 41% 30.20 in 10.0 mi SE 4.6 mph - N/A   Clear
10:55 PM 75.2 °F 48.2 °F 38% 30.21 in 10.0 mi Calm Calm - N/A   Clear
11:15 PM 75.2 °F 48.2 °F 38% 30.21 in 10.0 mi Calm Calm - N/A   Clear
11:35 PM 75.2 °F 48.2 °F 38% 30.21 in 10.0 mi SE 4.6 mph - N/A   Clear
11:55 PM 71.6 °F 48.2 °F 43% 30.20 in 10.0 mi SSE 3.5 mph - N/A   Clear